Orbital Elements at Epoch 2459200.5 (2020-Dec-17.0) TDB
Reference: JPL 24 (heliocentric ecliptic J2000)
Element | Value | Uncertainty (1-sigma) | Units |
e | .06322069224610159 | 4.5957e-08 | |
a | 3.156333968158054 | 2.0085e-08 | au |
q | 2.956788349731217 | 1.5072e-07 | au |
i | 7.07795904189678 | 4.0006e-06 | deg |
node | 130.7545753123191 | 4.5308e-05 | deg |
peri | 134.3826099713785 | 6.3221e-05 | deg |
M | 353.0363978489273 | 4.4561e-05 | deg |
tp | 2459240.119072166550 (2021-Jan-25.61907217) | 0.0002535 | TDB |
period | 2048.20230543484 5.61 | 1.9551e-05 5.353e-08 | d yr |
n | .175763887700327 | 1.6777e-09 | deg/d |
Q | 3.355879586584891 | 2.1355e-08 | au |
|
| | Orbit Determination Parameters
Additional Information
|